Weather History for KPVD - January, 2013

Change the Weather History Date:

Wednesday, January 2, 2013

  Actual Average Record
Temperature  
Mean Temperature 24 °F 30 °F  
Max Temperature 31 °F 38 °F 59 °F (1979)
Min Temperature 16 °F 22 °F -4 °F (1918)
Degree Days  
Heating Degree Days 41 35  
Month to date heating degree days 76 70  
Since 1 July heating degree days 1916 2097  
Cooling Degree Days 0 0  
Month to date cooling degree days 0 0  
Year to date cooling degree days 0 0  
Moisture  
Dew Point 8 °F    
Average Humidity 55    
Maximum Humidity 67    
Minimum Humidity 43    
Precipitation  
Precipitation 0.00 in 0.12 in 1.85 in (1979)
Month to date precipitation T 0.24  
Year to date precipitation T 0.24  
Snow  
Snow 0.00 in 0.30 in 5.40 in (1948)
Month to date snowfall T 0.6  
Since 1 July snowfall 10.6 10.8  
Snow Depth 4.00 in    
Sea Level Pressure  
Sea Level Pressure 30.00 in    
Wind  
Wind Speed 9 mph (WNW)    
Max Wind Speed 21 mph    
Max Gust Speed 28 mph    
Visibility 10 miles    
Events      
T = Trace of Precipitation, MM = Missing Value Source: NWS Daily Summary

Daily Weather History Graph

Daily Weather History Graph

Search for Another Location

Airport or City:

Trip Planner

Search our weather history database for the weather conditions in past years. The results will help you decide how hot, cold, wet, or windy it might be!

Date:

Astronomy

Jan. 02, 2013 Rise Set
Actual Time 7:13 AM EST 4:27 PM EST
Civil Twilight 6:41 AM EST 4:58 PM EST
Nautical Twilight 6:06 AM EST 5:33 PM EST
Astronomical Twilight 5:33 AM EST 6:07 PM EST
Moon 10:01 PM EST (1/2) 9:48 AM EST (1/2)
Length of Visible Light 10h 16m
Length of Day
9h 14m
Waning Gibbous, 75% of the Moon is Illuminated
Jan 2
Waning Gibbous
Jan 4
Last Quarter
Jan 11
New
Jan 18
First Quarter
Jan 26
Full

Hourly Weather History & Observations

Time (EST) Temp. Windchill Dew Point Humidity Pressure Visibility Wind Dir Wind Speed Gust Speed Precip Events Conditions
12:51 AM 21.0 °F 12.4 °F 5.0 °F 50% 29.95 in 10.0 mi WNW 6.9 mph - N/A   Scattered Clouds
1:51 AM 19.9 °F 12.1 °F 5.0 °F 52% 29.96 in 10.0 mi WNW 5.8 mph - N/A   Scattered Clouds
2:51 AM 19.0 °F 9.0 °F 5.0 °F 54% 29.98 in 10.0 mi WNW 8.1 mph - N/A   Scattered Clouds
3:51 AM 18.0 °F 9.8 °F 6.1 °F 60% 29.98 in 10.0 mi WNW 5.8 mph - N/A   Scattered Clouds
4:51 AM 17.1 °F 7.6 °F 6.1 °F 62% 29.96 in 10.0 mi WNW 6.9 mph - N/A   Clear
5:51 AM 16.0 °F 5.3 °F 7.0 °F 68% 29.97 in 10.0 mi West 8.1 mph - N/A   Scattered Clouds
6:51 AM 16.0 °F 3.6 °F 7.0 °F 68% 29.97 in 10.0 mi West 10.4 mph - N/A   Scattered Clouds
7:51 AM 17.1 °F 5.0 °F 6.1 °F 62% 29.96 in 10.0 mi West 10.4 mph - N/A   Scattered Clouds
8:51 AM 19.9 °F 9.3 °F 7.0 °F 57% 29.97 in 10.0 mi West 9.2 mph - N/A   Scattered Clouds
9:51 AM 23.0 °F 11.7 °F 7.0 °F 50% 29.99 in 10.0 mi West 11.5 mph - N/A   Partly Cloudy
10:51 AM 26.1 °F 15.0 °F 9.0 °F 49% 29.98 in 10.0 mi West 12.7 mph - N/A   Scattered Clouds
11:51 AM 28.4 °F 18.0 °F 10.4 °F 47% 29.96 in 10.0 mi WNW 12.7 mph 20.7 mph N/A   Scattered Clouds
12:51 PM 28.9 °F 18.6 °F 10.9 °F 47% 29.94 in 10.0 mi West 12.7 mph 18.4 mph N/A   Scattered Clouds
1:51 PM 30.0 °F 21.1 °F 10.9 °F 45% 29.93 in 10.0 mi West 10.4 mph 21.9 mph N/A   Scattered Clouds
2:51 PM 30.0 °F 20.5 °F 10.9 °F 45% 29.96 in 10.0 mi NW 11.5 mph 27.6 mph N/A   Mostly Cloudy
3:51 PM 28.9 °F 18.2 °F 10.0 °F 45% 29.98 in 10.0 mi WNW 13.8 mph 21.9 mph N/A   Scattered Clouds
4:51 PM 28.0 °F 21.7 °F 10.0 °F 47% 30.01 in 10.0 mi NW 5.8 mph - N/A   Scattered Clouds
5:51 PM 27.0 °F 21.6 °F 10.9 °F 51% 30.03 in 10.0 mi NW 4.6 mph - N/A   Scattered Clouds
6:51 PM 26.1 °F 19.4 °F 9.0 °F 49% 30.06 in 10.0 mi WNW 5.8 mph - N/A   Partly Cloudy
7:51 PM 25.0 °F 17.1 °F 9.0 °F 51% 30.06 in 10.0 mi NW 6.9 mph - N/A   Mostly Cloudy
8:51 PM 24.1 °F - 9.0 °F 53% 30.07 in 10.0 mi Calm Calm - N/A   Mostly Cloudy
9:51 PM 23.0 °F 13.9 °F 10.0 °F 58% 30.09 in 10.0 mi NNW 8.1 mph - N/A   Mostly Cloudy
10:51 PM 19.9 °F 11.1 °F 7.0 °F 57% 30.10 in 10.0 mi North 6.9 mph - N/A   Overcast
11:51 PM 19.0 °F 8.2 °F 6.1 °F 57% 30.11 in 10.0 mi NW 9.2 mph - N/A   Overcast